Time,TemperatureF,DewpointF,PressureIn,WindDirection,WindDirectionDegrees,WindSpeedMPH,WindSpeedGustMPH,Humidity,HourlyPrecipIn,Conditions,Clouds,dailyrainin,SoftwareType,DateUTC
2013-01-19 00:04:00,34.9,22.8,30.00,SSW,206,22.0,26.0,61,0.00,CLR,FEW,0.00,WeatherDisplay:10.37,2013-01-19 05:04:00,
2013-01-19 00:09:00,35.1,23.0,30.00,SSW,208,23.0,26.0,61,0.00,CLR,FEW,0.00,WeatherDisplay:10.37,2013-01-19 05:09:00,
2013-01-19 00:14:00,35.2,23.1,30.00,SSW,201,23.0,23.0,61,0.00,CLR,FEW,0.00,WeatherDisplay:10.37,2013-01-19 05:14:00,
2013-01-19 00:19:00,35.2,23.1,30.00,SSW,199,23.0,26.0,61,0.00,CLR,FEW,0.00,WeatherDisplay:10.37,2013-01-19 05:19:00,
2013-01-19 00:29:00,35.1,23.3,30.00,SSW,207,20.0,20.0,62,0.00,CLR,FEW,0.00,WeatherDisplay:10.37,2013-01-19 05:29:00,
2013-01-19 00:39:00,35.8,23.2,30.00,SSW,203,18.0,22.0,60,0.00,CLR,FEW,0.00,WeatherDisplay:10.37,2013-01-19 05:39:00,
2013-01-19 00:49:00,35.6,23.1,30.00,SSW,204,18.0,18.0,60,0.00,CLR,FEW,0.00,WeatherDisplay:10.37,2013-01-19 05:49:00,
2013-01-19 00:59:00,35.4,23.7,30.00,SSW,200,17.0,19.0,62,0.00,CLR,FEW,0.00,WeatherDisplay:10.37,2013-01-19 05:59:00,
2013-01-19 01:04:00,35.6,23.5,30.00,SSW,211,17.0,24.0,61,0.00,CLR,FEW,0.00,WeatherDisplay:10.37,2013-01-19 06:04:00,
2013-01-19 01:09:00,35.6,23.1,30.00,SW,221,18.0,24.0,60,0.00,CLR,FEW,0.00,WeatherDisplay:10.37,2013-01-19 06:09:00,
2013-01-19 01:19:00,35.6,23.5,30.00,SSW,206,17.0,18.0,61,0.00,CLR,FEW,0.00,WeatherDisplay:10.37,2013-01-19 06:19:00,
2013-01-19 01:29:00,35.2,23.9,30.00,SSW,208,16.0,19.0,63,0.00,CLR,FEW,0.00,WeatherDisplay:10.37,2013-01-19 06:29:00,
2013-01-19 01:34:00,35.2,23.9,30.00,SSW,194,16.0,17.0,63,0.00,CLR,FEW,0.00,WeatherDisplay:10.37,2013-01-19 06:34:00,
2013-01-19 01:39:00,35.2,23.9,30.00,South,190,16.0,17.0,63,0.00,CLR,FEW,0.00,WeatherDisplay:10.37,2013-01-19 06:39:00,
2013-01-19 01:44:00,35.2,23.9,30.00,SSW,212,14.0,14.0,63,0.00,CLR,FEW,0.00,WeatherDisplay:10.37,2013-01-19 06:44:00,
2013-01-19 01:49:00,35.2,24.3,30.00,SSW,209,14.0,14.0,64,0.00,CLR,FEW,0.00,WeatherDisplay:10.37,2013-01-19 06:49:00,
2013-01-19 01:59:00,35.6,23.9,30.00,SSW,198,12.0,17.0,62,0.00,CLR,FEW,0.00,WeatherDisplay:10.37,2013-01-19 06:59:00,
2013-01-19 02:04:00,35.6,23.5,30.00,South,191,13.0,17.0,61,0.00,CLR,FEW,0.00,WeatherDisplay:10.37,2013-01-19 07:04:00,
2013-01-19 02:09:00,36.0,23.8,30.00,South,190,12.0,12.0,61,0.00,CLR,FEW,0.00,WeatherDisplay:10.37,2013-01-19 07:09:00,
2013-01-19 02:19:00,35.8,23.6,30.00,SSW,198,13.0,16.0,61,0.00,CLR,FEW,0.00,WeatherDisplay:10.37,2013-01-19 07:19:00,
2013-01-19 02:24:00,35.8,23.6,30.00,SSW,202,12.0,15.0,61,0.00,CLR,FEW,0.00,WeatherDisplay:10.37,2013-01-19 07:24:00,
2013-01-19 02:29:00,35.6,23.9,30.00,SSW,198,13.0,14.0,62,0.00,CLR,FEW,0.00,WeatherDisplay:10.37,2013-01-19 07:29:00,
2013-01-19 02:39:00,35.6,23.9,30.00,South,188,12.0,16.0,62,0.00,CLR,FEW,0.00,WeatherDisplay:10.37,2013-01-19 07:39:00,
2013-01-19 02:44:00,35.8,24.0,30.00,South,187,13.0,16.0,62,0.00,CLR,FEW,0.00,WeatherDisplay:10.37,2013-01-19 07:44:00,
2013-01-19 02:49:00,35.8,23.6,30.00,South,186,13.0,14.0,61,0.00,CLR,FEW,0.00,WeatherDisplay:10.37,2013-01-19 07:49:00,
2013-01-19 02:59:00,36.0,23.8,30.00,SSW,193,13.0,14.0,61,0.00,CLR,FEW,0.00,WeatherDisplay:10.37,2013-01-19 07:59:00,
2013-01-19 03:04:00,35.8,23.6,30.00,South,187,12.0,12.0,61,0.00,CLR,FEW,0.00,WeatherDisplay:10.37,2013-01-19 08:04:00,
2013-01-19 03:09:00,35.8,23.6,30.00,South,190,10.0,13.0,61,0.00,CLR,FEW,0.00,WeatherDisplay:10.37,2013-01-19 08:09:00,
2013-01-19 03:14:00,36.0,23.8,30.00,SSW,198,12.0,15.0,61,0.00,CLR,FEW,0.00,WeatherDisplay:10.37,2013-01-19 08:14:00,
2013-01-19 03:19:00,36.0,23.8,30.00,SSW,196,12.0,13.0,61,0.00,CLR,FEW,0.00,WeatherDisplay:10.37,2013-01-19 08:19:00,
2013-01-19 03:24:00,36.0,23.8,30.00,SSW,194,12.0,12.0,61,0.00,CLR,FEW,0.00,WeatherDisplay:10.37,2013-01-19 08:24:00,
2013-01-19 03:34:00,36.0,23.8,30.00,SSW,198,10.0,14.0,61,0.00,CLR,FEW,0.00,WeatherDisplay:10.37,2013-01-19 08:34:00,
2013-01-19 03:39:00,36.0,23.8,30.00,SSW,195,10.0,14.0,61,0.00,CLR,FEW,0.00,WeatherDisplay:10.37,2013-01-19 08:39:00,
2013-01-19 03:44:00,36.3,23.8,30.00,SSW,194,10.0,11.0,60,0.00,CLR,FEW,0.00,WeatherDisplay:10.37,2013-01-19 08:44:00,
2013-01-19 03:49:00,36.1,24.0,30.00,SSW,194,9.0,12.0,61,0.00,CLR,FEW,0.00,WeatherDisplay:10.37,2013-01-19 08:49:00,
2013-01-19 03:54:00,36.7,24.1,30.00,SSW,199,10.0,12.0,60,0.00,CLR,FEW,0.00,WeatherDisplay:10.37,2013-01-19 08:54:00,
2013-01-19 03:59:00,36.3,23.8,30.00,SSW,209,10.0,15.0,60,0.00,CLR,FEW,0.00,WeatherDisplay:10.37,2013-01-19 08:59:00,
2013-01-19 04:04:00,36.7,24.1,30.00,SSW,204,10.0,10.0,60,0.00,CLR,FEW,0.00,WeatherDisplay:10.37,2013-01-19 09:04:00,
2013-01-19 04:09:00,36.5,23.9,30.00,SSW,196,10.0,10.0,60,0.00,CLR,FEW,0.00,WeatherDisplay:10.37,2013-01-19 09:09:00,
2013-01-19 04:19:00,36.7,23.7,30.00,SSW,201,8.0,10.0,59,0.00,CLR,FEW,0.00,WeatherDisplay:10.37,2013-01-19 09:19:00,
2013-01-19 04:24:00,36.9,24.3,30.00,SSW,199,8.0,9.0,60,0.00,CLR,FEW,0.00,WeatherDisplay:10.37,2013-01-19 09:24:00,
2013-01-19 04:29:00,36.7,23.7,29.97,SSW,206,8.0,8.0,59,0.00,CLR,FEW,0.00,WeatherDisplay:10.37,2013-01-19 09:29:00,
2013-01-19 04:34:00,37.0,24.0,29.97,SSW,212,9.0,12.0,59,0.00,CLR,FEW,0.00,WeatherDisplay:10.37,2013-01-19 09:34:00,
2013-01-19 04:39:00,36.7,23.7,29.97,SSW,213,9.0,13.0,59,0.00,CLR,FEW,0.00,WeatherDisplay:10.37,2013-01-19 09:39:00,
2013-01-19 04:49:00,36.5,23.5,29.97,SW,222,9.0,10.0,59,0.00,CLR,FEW,0.00,WeatherDisplay:10.37,2013-01-19 09:49:00,
2013-01-19 04:59:00,36.5,23.9,29.97,SSW,207,9.0,14.0,60,0.00,CLR,FEW,0.00,WeatherDisplay:10.37,2013-01-19 09:59:00,
2013-01-19 05:04:00,37.4,24.4,29.97,SSW,203,10.0,14.0,59,0.00,CLR,FEW,0.00,WeatherDisplay:10.37,2013-01-19 10:04:00,
2013-01-19 05:09:00,37.4,24.4,29.97,SSW,205,10.0,10.0,59,0.00,CLR,FEW,0.00,WeatherDisplay:10.37,2013-01-19 10:09:00,
2013-01-19 05:19:00,37.8,23.9,29.97,SSW,209,10.0,12.0,57,0.00,CLR,FEW,0.00,WeatherDisplay:10.37,2013-01-19 10:19:00,
2013-01-19 05:29:00,38.1,23.8,29.97,SW,215,12.0,15.0,56,0.00,CLR,FEW,0.00,WeatherDisplay:10.37,2013-01-19 10:29:00,
2013-01-19 05:39:00,37.6,23.7,29.97,SSW,206,12.0,15.0,57,0.00,CLR,FEW,0.00,WeatherDisplay:10.37,2013-01-19 10:39:00,
2013-01-19 05:44:00,38.3,24.4,29.97,SSW,208,12.0,15.0,57,0.00,CLR,FEW,0.00,WeatherDisplay:10.37,2013-01-19 10:44:00,
2013-01-19 05:49:00,38.1,23.4,29.97,SSW,211,12.0,15.0,55,0.00,CLR,FEW,0.00,WeatherDisplay:10.37,2013-01-19 10:49:00,
2013-01-19 05:54:00,38.1,23.8,29.97,SW,214,13.0,18.0,56,0.00,CLR,FEW,0.00,WeatherDisplay:10.37,2013-01-19 10:54:00,
2013-01-19 05:59:00,38.3,23.5,29.97,SSW,204,14.0,18.0,55,0.00,CLR,FEW,0.00,WeatherDisplay:10.37,2013-01-19 10:59:00,
2013-01-19 06:09:00,38.3,23.5,29.97,SW,216,14.0,14.0,55,0.00,CLR,FEW,0.00,WeatherDisplay:10.37,2013-01-19 11:09:00,
2013-01-19 07:49:00,38.3,25.2,29.97,SW,219,13.0,14.0,59,0.00,CLR,FEW,0.00,WeatherDisplay:10.37,2013-01-19 12:49:00,
2013-01-19 07:54:00,38.3,24.8,29.97,SW,215,13.0,13.0,58,0.00,CLR,FEW,0.00,WeatherDisplay:10.37,2013-01-19 12:54:00,
2013-01-19 07:59:00,38.8,24.9,29.97,SW,216,13.0,13.0,57,0.00,CLR,FEW,0.00,WeatherDisplay:10.37,2013-01-19 12:59:00,
2013-01-19 08:04:00,38.7,25.1,29.97,SW,218,14.0,17.0,58,0.00,CLR,FEW,0.00,WeatherDisplay:10.37,2013-01-19 13:04:00,
2013-01-19 08:09:00,38.5,25.4,29.97,SW,214,14.0,20.0,59,0.00,CLR,FEW,0.00,WeatherDisplay:10.37,2013-01-19 13:09:00,
2013-01-19 08:19:00,38.7,25.6,29.97,SSW,212,16.0,17.0,59,0.00,CLR,FEW,0.00,WeatherDisplay:10.37,2013-01-19 13:19:00,
2013-01-19 08:24:00,39.0,25.9,29.97,SSW,210,16.0,16.0,59,0.00,CLR,FEW,0.00,WeatherDisplay:10.37,2013-01-19 13:24:00,
2013-01-19 08:29:00,39.0,25.9,29.97,SSW,206,15.0,15.0,59,0.00,CLR,FEW,0.00,WeatherDisplay:10.37,2013-01-19 13:29:00,
2013-01-19 08:34:00,39.0,25.9,29.97,SSW,209,13.0,13.0,59,0.00,CLR,FEW,0.00,WeatherDisplay:10.37,2013-01-19 13:34:00,
2013-01-19 08:39:00,38.8,25.7,29.97,SSW,211,13.0,15.0,59,0.00,CLR,FEW,0.00,WeatherDisplay:10.37,2013-01-19 13:39:00,
2013-01-19 08:44:00,39.4,26.2,29.97,SW,215,12.0,15.0,59,0.00,CLR,FEW,0.00,WeatherDisplay:10.37,2013-01-19 13:44:00,
2013-01-19 08:49:00,39.7,26.2,29.97,SSW,210,12.0,15.0,58,0.00,CLR,FEW,0.00,WeatherDisplay:10.37,2013-01-19 13:49:00,
2013-01-19 08:54:00,40.1,26.5,29.97,SSW,209,12.0,12.0,58,0.00,CLR,FEW,0.00,WeatherDisplay:10.37,2013-01-19 13:54:00,
2013-01-19 08:59:00,40.6,26.6,29.97,SW,216,13.0,18.0,57,0.00,CLR,FEW,0.00,WeatherDisplay:10.37,2013-01-19 13:59:00,
2013-01-19 09:04:00,40.8,26.7,29.97,SW,221,12.0,12.0,57,0.00,CLR,FEW,0.00,WeatherDisplay:10.37,2013-01-19 14:04:00,
2013-01-19 09:09:00,41.0,26.5,29.97,SW,214,12.0,13.0,56,0.00,CLR,FEW,0.00,WeatherDisplay:10.37,2013-01-19 14:09:00,
2013-01-19 09:19:00,41.0,26.5,29.97,SSW,211,13.0,19.0,56,0.00,CLR,FEW,0.00,WeatherDisplay:10.37,2013-01-19 14:19:00,
2013-01-19 09:29:00,42.3,26.8,29.97,SW,217,15.0,18.0,54,0.00,CLR,FEW,0.00,WeatherDisplay:10.37,2013-01-19 14:29:00,
2013-01-19 09:34:00,42.4,27.0,29.97,SW,216,15.0,20.0,54,0.00,CLR,FEW,0.00,WeatherDisplay:10.37,2013-01-19 14:34:00,
2013-01-19 09:39:00,42.6,27.1,29.97,SW,216,16.0,20.0,54,0.00,CLR,FEW,0.00,WeatherDisplay:10.37,2013-01-19 14:39:00,
2013-01-19 09:49:00,42.6,27.6,29.97,SW,221,16.0,19.0,55,0.00,CLR,FEW,0.00,WeatherDisplay:10.37,2013-01-19 14:49:00,
2013-01-19 09:54:00,42.6,27.6,29.97,SSW,212,16.0,19.0,55,0.00,CLR,FEW,0.00,WeatherDisplay:10.37,2013-01-19 14:54:00,
2013-01-19 09:59:00,44.1,28.5,29.97,SSW,213,14.0,16.0,54,0.00,CLR,FEW,0.00,WeatherDisplay:10.37,2013-01-19 14:59:00,
2013-01-19 10:04:00,44.1,28.5,29.97,SW,219,14.0,17.0,54,0.00,CLR,FEW,0.00,WeatherDisplay:10.37,2013-01-19 15:04:00,
2013-01-19 10:09:00,44.6,27.1,29.97,SW,220,14.0,14.0,50,0.00,CLR,FEW,0.00,WeatherDisplay:10.37,2013-01-19 15:09:00,
2013-01-19 10:19:00,45.5,27.4,29.97,SW,214,16.0,18.0,49,0.00,CLR,FEW,0.00,WeatherDisplay:10.37,2013-01-19 15:19:00,
2013-01-19 10:24:00,46.4,28.3,29.97,SSW,213,16.0,17.0,49,0.00,CLR,FEW,0.00,WeatherDisplay:10.37,2013-01-19 15:24:00,
2013-01-19 10:29:00,46.6,28.4,29.97,WSW,245,15.0,17.0,49,0.00,CLR,FEW,0.00,WeatherDisplay:10.37,2013-01-19 15:29:00,
2013-01-19 10:39:00,46.4,28.3,29.97,SW,226,16.0,21.0,49,0.00,CLR,FEW,0.00,WeatherDisplay:10.37,2013-01-19 15:39:00,
2013-01-19 10:49:00,47.1,28.9,29.97,SW,219,17.0,17.0,49,0.00,CLR,FEW,0.00,WeatherDisplay:10.37,2013-01-19 15:49:00,
2013-01-19 10:59:00,46.8,28.6,29.97,SW,222,15.0,20.0,49,0.00,CLR,FEW,0.00,WeatherDisplay:10.37,2013-01-19 15:59:00,
2013-01-19 11:04:00,47.3,29.1,29.97,SW,232,16.0,20.0,49,0.00,CLR,FEW,0.00,WeatherDisplay:10.37,2013-01-19 16:04:00,
2013-01-19 11:09:00,46.9,28.8,29.97,SW,232,15.0,15.0,49,0.00,CLR,FEW,0.00,WeatherDisplay:10.37,2013-01-19 16:09:00,
2013-01-19 11:19:00,47.7,29.4,29.97,SW,230,15.0,17.0,49,0.00,CLR,FEW,0.00,WeatherDisplay:10.37,2013-01-19 16:19:00,
2013-01-19 11:24:00,47.7,29.4,29.97,SW,222,15.0,17.0,49,0.00,CLR,FEW,0.00,WeatherDisplay:10.37,2013-01-19 16:24:00,
2013-01-19 11:29:00,48.2,29.9,29.94,SSW,212,15.0,15.0,49,0.00,CLR,FEW,0.00,WeatherDisplay:10.37,2013-01-19 16:29:00,
2013-01-19 11:34:00,48.2,29.9,29.94,SW,224,14.0,14.0,49,0.00,CLR,FEW,0.00,WeatherDisplay:10.37,2013-01-19 16:34:00,
2013-01-19 11:39:00,48.0,29.7,29.94,SW,225,13.0,13.0,49,0.00,CLR,FEW,0.00,WeatherDisplay:10.37,2013-01-19 16:39:00,
2013-01-19 11:49:00,48.6,30.2,29.94,SW,224,14.0,19.0,49,0.00,CLR,FEW,0.00,WeatherDisplay:10.37,2013-01-19 16:49:00,
2013-01-19 11:59:00,49.3,30.9,29.94,SW,221,16.0,19.0,49,0.00,CLR,FEW,0.00,WeatherDisplay:10.37,2013-01-19 16:59:00,
2013-01-19 12:04:00,50.7,32.2,29.94,SW,214,17.0,22.0,49,0.00,CLR,FEW,0.00,WeatherDisplay:10.37,2013-01-19 17:04:00,
2013-01-19 12:09:00,50.5,32.1,29.91,SW,215,16.0,21.0,49,0.00,CLR,FEW,0.00,WeatherDisplay:10.37,2013-01-19 17:09:00,
2013-01-19 12:14:00,50.4,31.9,29.91,SW,222,16.0,20.0,49,0.00,CLR,FEW,0.00,WeatherDisplay:10.37,2013-01-19 17:14:00,
2013-01-19 12:19:00,50.7,32.2,29.91,SW,225,16.0,16.0,49,0.00,CLR,FEW,0.00,WeatherDisplay:10.37,2013-01-19 17:19:00,
2013-01-19 12:24:00,51.1,32.6,29.91,SW,225,15.0,21.0,49,0.00,CLR,FEW,0.00,WeatherDisplay:10.37,2013-01-19 17:24:00,
2013-01-19 12:34:00,49.5,31.1,29.91,SW,219,18.0,21.0,49,0.00,CLR,FEW,0.00,WeatherDisplay:10.37,2013-01-19 17:34:00,
2013-01-19 12:39:00,49.6,31.2,29.91,SW,218,18.0,21.0,49,0.00,CLR,FEW,0.00,WeatherDisplay:10.37,2013-01-19 17:39:00,
2013-01-19 12:44:00,50.2,31.7,29.88,SW,216,18.0,18.0,49,0.00,CLR,FEW,0.00,WeatherDisplay:10.37,2013-01-19 17:44:00,
2013-01-19 12:49:00,50.0,31.6,29.88,SW,218,17.0,18.0,49,0.00,CLR,FEW,0.00,WeatherDisplay:10.37,2013-01-19 17:49:00,
2013-01-19 12:59:00,50.4,31.9,29.88,SW,219,16.0,19.0,49,0.00,CLR,FEW,0.00,WeatherDisplay:10.37,2013-01-19 17:59:00,
2013-01-19 13:04:00,50.4,31.9,29.88,SW,216,16.0,17.0,49,0.00,CLR,FEW,0.00,WeatherDisplay:10.37,2013-01-19 18:04:00,
2013-01-19 13:09:00,49.8,31.4,29.88,SW,221,16.0,18.0,49,0.00,CLR,FEW,0.00,WeatherDisplay:10.37,2013-01-19 18:09:00,
2013-01-19 13:19:00,50.7,32.2,29.88,SSW,213,16.0,20.0,49,0.00,CLR,FEW,0.00,WeatherDisplay:10.37,2013-01-19 18:19:00,
2013-01-19 13:29:00,50.7,32.2,29.85,SW,220,16.0,22.0,49,0.00,CLR,FEW,0.00,WeatherDisplay:10.37,2013-01-19 18:29:00,
2013-01-19 13:34:00,50.7,32.2,29.85,SW,224,18.0,22.0,49,0.00,CLR,FEW,0.00,WeatherDisplay:10.37,2013-01-19 18:34:00,
2013-01-19 13:39:00,50.4,31.9,29.85,SSW,211,18.0,24.0,49,0.00,CLR,FEW,0.00,WeatherDisplay:10.37,2013-01-19 18:39:00,
2013-01-19 13:44:00,50.9,32.4,29.85,SSW,212,20.0,29.0,49,0.00,CLR,FEW,0.00,WeatherDisplay:10.37,2013-01-19 18:44:00,
2013-01-19 13:49:00,50.9,32.4,29.85,SW,229,20.0,29.0,49,0.00,CLR,FEW,0.00,WeatherDisplay:10.37,2013-01-19 18:49:00,
2013-01-19 13:59:00,52.3,33.7,29.85,SSW,194,16.0,16.0,49,0.00,CLR,FEW,0.00,WeatherDisplay:10.37,2013-01-19 18:59:00,
2013-01-19 14:04:00,50.9,32.4,29.85,SSW,204,14.0,23.0,49,0.00,CLR,FEW,0.00,WeatherDisplay:10.37,2013-01-19 19:04:00,
2013-01-19 14:09:00,51.3,32.7,29.85,SSW,198,14.0,23.0,49,0.00,CLR,FEW,0.00,WeatherDisplay:10.37,2013-01-19 19:09:00,
2013-01-19 14:24:00,51.4,32.9,29.82,SSW,205,21.0,21.0,49,0.00,CLR,FEW,0.00,WeatherDisplay:10.37,2013-01-19 19:24:00,
2013-01-19 14:29:00,50.9,32.4,29.82,SSW,205,20.0,22.0,49,0.00,CLR,FEW,0.00,WeatherDisplay:10.37,2013-01-19 19:29:00,
2013-01-19 14:34:00,51.4,32.9,29.82,SW,216,20.0,22.0,49,0.00,CLR,FEW,0.00,WeatherDisplay:10.37,2013-01-19 19:34:00,
2013-01-19 14:44:00,51.1,32.6,29.82,South,183,18.0,18.0,49,0.00,CLR,FEW,0.00,WeatherDisplay:10.37,2013-01-19 19:44:00,
2013-01-19 14:49:00,51.3,32.7,29.82,SSW,201,17.0,23.0,49,0.00,CLR,FEW,0.00,WeatherDisplay:10.37,2013-01-19 19:49:00,
2013-01-19 14:59:00,52.2,33.6,29.82,SSW,210,18.0,22.0,49,0.00,CLR,FEW,0.00,WeatherDisplay:10.37,2013-01-19 19:59:00,
2013-01-19 15:04:00,51.1,32.6,29.79,SSW,212,20.0,22.0,49,0.00,CLR,FEW,0.00,WeatherDisplay:10.37,2013-01-19 20:04:00,
2013-01-19 15:09:00,50.5,32.1,29.79,SW,214,20.0,20.0,49,0.00,CLR,FEW,0.00,WeatherDisplay:10.37,2013-01-19 20:09:00,
2013-01-19 15:14:00,50.7,32.2,29.79,SSW,206,18.0,20.0,49,0.00,CLR,FEW,0.00,WeatherDisplay:10.37,2013-01-19 20:14:00,
2013-01-19 15:24:00,50.7,32.2,29.79,SSW,195,16.0,16.0,49,0.00,CLR,FEW,0.00,WeatherDisplay:10.37,2013-01-19 20:24:00,
2013-01-19 15:29:00,50.7,32.2,29.79,SSW,192,16.0,21.0,49,0.00,CLR,FEW,0.00,WeatherDisplay:10.37,2013-01-19 20:29:00,
2013-01-19 15:34:00,50.2,31.7,29.79,SSW,203,17.0,23.0,49,0.00,CLR,FEW,0.00,WeatherDisplay:10.37,2013-01-19 20:34:00,
2013-01-19 15:44:00,50.4,31.9,29.79,SSW,199,17.0,20.0,49,0.00,CLR,FEW,0.00,WeatherDisplay:10.37,2013-01-19 20:44:00,
2013-01-19 15:49:00,50.4,31.9,29.79,SSW,206,18.0,20.0,49,0.00,CLR,FEW,0.00,WeatherDisplay:10.37,2013-01-19 20:49:00,
2013-01-19 15:59:00,50.2,31.7,29.76,South,191,18.0,19.0,49,0.00,CLR,FEW,0.00,WeatherDisplay:10.37,2013-01-19 20:59:00,
2013-01-19 16:09:00,50.4,31.9,29.76,SSW,204,21.0,25.0,49,0.00,CLR,FEW,0.00,WeatherDisplay:10.37,2013-01-19 21:09:00,
2013-01-19 16:24:00,50.4,31.9,29.76,SSW,196,20.0,20.0,49,0.00,CLR,FEW,0.00,WeatherDisplay:10.37,2013-01-19 21:24:00,
2013-01-19 16:34:00,50.2,31.7,29.76,SSW,195,16.0,16.0,49,0.00,CLR,FEW,0.00,WeatherDisplay:10.37,2013-01-19 21:34:00,
2013-01-19 16:39:00,50.0,31.6,29.76,SSW,195,16.0,16.0,49,0.00,CLR,FEW,0.00,WeatherDisplay:10.37,2013-01-19 21:39:00,
2013-01-19 16:49:00,50.0,31.6,29.76,SSW,204,15.0,20.0,49,0.00,CLR,FEW,0.00,WeatherDisplay:10.37,2013-01-19 21:49:00,
2013-01-19 16:59:00,49.8,31.4,29.73,SSW,195,15.0,15.0,49,0.00,CLR,FEW,0.00,WeatherDisplay:10.37,2013-01-19 21:59:00,
2013-01-19 17:04:00,49.8,31.4,29.73,SSW,196,16.0,17.0,49,0.00,CLR,FEW,0.00,WeatherDisplay:10.37,2013-01-19 22:04:00,
2013-01-19 17:14:00,49.3,30.9,29.73,SSW,197,15.0,17.0,49,0.00,CLR,FEW,0.00,WeatherDisplay:10.37,2013-01-19 22:14:00,
2013-01-19 17:19:00,49.3,30.9,29.73,SSW,197,14.0,14.0,49,0.00,CLR,FEW,0.00,WeatherDisplay:10.37,2013-01-19 22:19:00,
2013-01-19 17:29:00,48.9,30.6,29.73,SSW,202,14.0,18.0,49,0.00,CLR,FEW,0.00,WeatherDisplay:10.37,2013-01-19 22:29:00,
2013-01-19 17:39:00,48.9,30.6,29.73,SSW,201,12.0,13.0,49,0.00,CLR,FEW,0.00,WeatherDisplay:10.37,2013-01-19 22:39:00,
2013-01-19 17:44:00,48.9,30.6,29.73,SSW,197,12.0,13.0,49,0.00,CLR,FEW,0.00,WeatherDisplay:10.37,2013-01-19 22:44:00,
2013-01-19 17:54:00,48.6,30.2,29.73,SSW,211,10.0,21.0,49,0.00,CLR,FEW,0.00,WeatherDisplay:10.37,2013-01-19 22:54:00,
2013-01-19 17:59:00,48.6,30.2,29.73,SSW,213,12.0,20.0,49,0.00,CLR,FEW,0.00,WeatherDisplay:10.37,2013-01-19 22:59:00,
2013-01-19 18:09:00,48.4,30.1,29.73,SW,227,12.0,17.0,49,0.00,CLR,FEW,0.00,WeatherDisplay:10.37,2013-01-19 23:09:00,
2013-01-19 18:19:00,48.2,29.9,29.73,SW,217,13.0,13.0,49,0.00,CLR,FEW,0.00,WeatherDisplay:10.37,2013-01-19 23:19:00,
2013-01-19 18:24:00,48.2,29.9,29.73,SW,216,13.0,14.0,49,0.00,CLR,FEW,0.00,WeatherDisplay:10.37,2013-01-19 23:24:00,
2013-01-19 18:29:00,48.4,30.1,29.73,SSW,212,13.0,14.0,49,0.00,CLR,FEW,0.00,WeatherDisplay:10.37,2013-01-19 23:29:00,
2013-01-19 18:34:00,48.4,30.1,29.73,SSW,205,12.0,14.0,49,0.00,CLR,FEW,0.00,WeatherDisplay:10.37,2013-01-19 23:34:00,
2013-01-19 18:39:00,48.4,30.1,29.73,SSW,206,12.0,13.0,49,0.00,CLR,FEW,0.00,WeatherDisplay:10.37,2013-01-19 23:39:00,
2013-01-19 18:44:00,48.0,29.7,29.73,SSW,208,12.0,19.0,49,0.00,CLR,FEW,0.00,WeatherDisplay:10.37,2013-01-19 23:44:00,
2013-01-19 18:49:00,48.0,29.7,29.73,SSW,212,12.0,19.0,49,0.00,CLR,FEW,0.00,WeatherDisplay:10.37,2013-01-19 23:49:00,
2013-01-19 18:54:00,48.2,29.9,29.73,SW,217,12.0,14.0,49,0.00,CLR,FEW,0.00,WeatherDisplay:10.37,2013-01-19 23:54:00,
2013-01-19 19:04:00,48.4,30.1,29.73,SSW,212,14.0,17.0,49,0.00,CLR,FEW,0.00,WeatherDisplay:10.37,2013-01-20 00:04:00,
2013-01-19 19:09:00,48.4,30.1,29.73,SW,218,14.0,15.0,49,0.00,CLR,FEW,0.00,WeatherDisplay:10.37,2013-01-20 00:09:00,
2013-01-19 19:19:00,48.4,30.1,29.73,SSW,211,14.0,14.0,49,0.00,CLR,FEW,0.00,WeatherDisplay:10.37,2013-01-20 00:19:00,
2013-01-19 19:24:00,48.2,29.9,29.73,SW,217,14.0,15.0,49,0.00,CLR,FEW,0.00,WeatherDisplay:10.37,2013-01-20 00:24:00,
2013-01-19 19:29:00,48.4,30.1,29.73,SW,221,14.0,17.0,49,0.00,CLR,FEW,0.00,WeatherDisplay:10.37,2013-01-20 00:29:00,
2013-01-19 19:34:00,48.4,30.1,29.73,SW,225,13.0,13.0,49,0.00,CLR,FEW,0.00,WeatherDisplay:10.37,2013-01-20 00:34:00,
2013-01-19 19:39:00,48.4,30.1,29.73,SW,221,12.0,15.0,49,0.00,CLR,FEW,0.00,WeatherDisplay:10.37,2013-01-20 00:39:00,
2013-01-19 19:49:00,48.6,30.2,29.73,SSW,206,15.0,20.0,49,0.00,CLR,FEW,0.00,WeatherDisplay:10.37,2013-01-20 00:49:00,
2013-01-19 19:59:00,48.7,30.4,29.73,SSW,198,16.0,16.0,49,0.00,CLR,FEW,0.00,WeatherDisplay:10.37,2013-01-20 00:59:00,
2013-01-19 20:04:00,48.7,30.4,29.73,SSW,208,16.0,19.0,49,0.00,CLR,FEW,0.00,WeatherDisplay:10.37,2013-01-20 01:04:00,
2013-01-19 20:19:00,48.7,30.4,29.73,SSW,201,17.0,17.0,49,0.00,CLR,FEW,0.00,WeatherDisplay:10.37,2013-01-20 01:19:00,
2013-01-19 20:24:00,48.7,30.4,29.73,SSW,204,17.0,17.0,49,0.00,CLR,FEW,0.00,WeatherDisplay:10.37,2013-01-20 01:24:00,
2013-01-19 20:29:00,48.7,30.4,29.73,SSW,212,16.0,16.0,49,0.00,CLR,FEW,0.00,WeatherDisplay:10.37,2013-01-20 01:29:00,
2013-01-19 20:39:00,47.8,29.6,29.70,SSW,207,15.0,19.0,49,0.00,CLR,FEW,0.00,WeatherDisplay:10.37,2013-01-20 01:39:00,
2013-01-19 21:04:00,47.3,29.6,29.70,SW,216,14.0,15.0,50,0.00,CLR,FEW,0.00,WeatherDisplay:10.37,2013-01-20 02:04:00,
2013-01-19 21:14:00,47.3,29.6,29.70,SW,216,15.0,17.0,50,0.00,CLR,FEW,0.00,WeatherDisplay:10.37,2013-01-20 02:14:00,
2013-01-19 21:19:00,46.9,30.2,29.70,SSW,209,15.0,16.0,52,0.00,CLR,FEW,0.00,WeatherDisplay:10.37,2013-01-20 02:19:00,
2013-01-19 21:24:00,47.5,29.7,29.70,SSW,208,15.0,16.0,50,0.00,CLR,FEW,0.00,WeatherDisplay:10.37,2013-01-20 02:24:00,
2013-01-19 21:29:00,47.3,29.6,29.70,SSW,203,14.0,17.0,50,0.00,CLR,FEW,0.00,WeatherDisplay:10.37,2013-01-20 02:29:00,
2013-01-19 21:34:00,47.3,29.6,29.70,SSW,206,15.0,20.0,50,0.00,CLR,FEW,0.00,WeatherDisplay:10.37,2013-01-20 02:34:00,
2013-01-19 21:39:00,47.1,29.4,29.70,SSW,209,15.0,20.0,50,0.00,CLR,FEW,0.00,WeatherDisplay:10.37,2013-01-20 02:39:00,
2013-01-19 21:44:00,47.1,30.4,29.70,SSW,210,15.0,15.0,52,0.00,CLR,FEW,0.00,WeatherDisplay:10.37,2013-01-20 02:44:00,
2013-01-19 21:54:00,46.9,31.1,29.70,SW,218,18.0,25.0,54,0.00,CLR,FEW,0.00,WeatherDisplay:10.37,2013-01-20 02:54:00,
2013-01-19 21:59:00,47.3,29.6,29.70,SSW,212,20.0,23.0,50,0.00,CLR,FEW,0.00,WeatherDisplay:10.37,2013-01-20 02:59:00,
2013-01-19 22:04:00,46.9,31.1,29.67,SSW,213,20.0,22.0,54,0.00,CLR,FEW,0.00,WeatherDisplay:10.37,2013-01-20 03:04:00,
2013-01-19 22:09:00,47.3,30.5,29.67,SW,218,20.0,20.0,52,0.00,CLR,FEW,0.00,WeatherDisplay:10.37,2013-01-20 03:09:00,
2013-01-19 22:14:00,47.1,31.3,29.67,SW,215,18.0,19.0,54,0.00,CLR,FEW,0.00,WeatherDisplay:10.37,2013-01-20 03:14:00,
2013-01-19 22:19:00,46.8,31.0,29.67,SW,222,17.0,20.0,54,0.00,CLR,FEW,0.00,WeatherDisplay:10.37,2013-01-20 03:19:00,
2013-01-19 22:34:00,47.1,31.3,29.67,SW,230,18.0,22.0,54,0.00,CLR,FEW,0.00,WeatherDisplay:10.37,2013-01-20 03:34:00,
2013-01-19 22:39:00,47.1,31.3,29.67,SW,232,18.0,25.0,54,0.00,CLR,FEW,0.00,WeatherDisplay:10.37,2013-01-20 03:39:00,
2013-01-19 22:44:00,47.1,31.8,29.67,SW,222,20.0,25.0,55,0.00,CLR,FEW,0.00,WeatherDisplay:10.37,2013-01-20 03:44:00,
2013-01-19 22:49:00,47.8,32.4,29.67,SW,224,18.0,25.0,55,0.00,CLR,FEW,0.00,WeatherDisplay:10.37,2013-01-20 03:49:00,
2013-01-19 22:54:00,48.0,32.6,29.67,SW,225,20.0,25.0,55,0.00,CLR,FEW,0.00,WeatherDisplay:10.37,2013-01-20 03:54:00,
2013-01-19 22:59:00,47.8,32.4,29.67,SW,219,20.0,20.0,55,0.00,CLR,FEW,0.00,WeatherDisplay:10.37,2013-01-20 03:59:00,
2013-01-19 23:04:00,47.5,32.6,29.67,SW,225,18.0,18.0,56,0.00,CLR,FEW,0.00,WeatherDisplay:10.37,2013-01-20 04:04:00,
2013-01-19 23:09:00,47.7,32.7,29.67,SW,227,18.0,23.0,56,0.00,CLR,FEW,0.00,WeatherDisplay:10.37,2013-01-20 04:09:00,
2013-01-19 23:14:00,47.8,32.9,29.67,SW,225,17.0,20.0,56,0.00,CLR,FEW,0.00,WeatherDisplay:10.37,2013-01-20 04:14:00,
2013-01-19 23:19:00,47.8,32.9,29.64,WSW,241,17.0,20.0,56,0.00,CLR,FEW,0.00,WeatherDisplay:10.37,2013-01-20 04:19:00,
2013-01-19 23:24:00,48.2,33.2,29.64,WSW,241,20.0,25.0,56,0.00,CLR,FEW,0.00,WeatherDisplay:10.37,2013-01-20 04:24:00,
2013-01-19 23:34:00,48.4,33.4,29.64,SW,221,22.0,25.0,56,0.00,CLR,FEW,0.00,WeatherDisplay:10.37,2013-01-20 04:34:00,
2013-01-19 23:39:00,48.4,33.4,29.64,SW,225,22.0,25.0,56,0.00,CLR,FEW,0.00,WeatherDisplay:10.37,2013-01-20 04:39:00,
2013-01-19 23:44:00,48.4,33.4,29.64,WSW,241,23.0,23.0,56,0.00,CLR,FEW,0.00,WeatherDisplay:10.37,2013-01-20 04:44:00,
2013-01-19 23:54:00,48.0,34.4,29.64,SW,227,21.0,21.0,59,0.00,CLR,FEW,0.00,WeatherDisplay:10.37,2013-01-20 04:54:00,